EW1898 Weather Reports


Display with metric or nautical units.
time (UTC)temp
F
wind
direction
speed
MPH
gust
MPH
rain 1hr
in
rain 24hr
in
rain mn
in
humidity
%
barometer
mb
20260507163052 58 336 4.0 11.0 0.00 0.21 0.01 41 1006.7
20260507161605 58 272 2.0 11.0 0.00 0.21 0.01 47 1006.9
20260507154546 56 285 4.0 11.0 0.00 0.21 0.01 53 1007.0
20260507153044 56 313 3.0 9.0 0.00 0.21 0.01 60 1007.1
20260507151543 56 314 7.0 14.0 0.00 0.21 0.01 60 1007.2
20260507150041 56 288 2.0 8.0 0.00 0.21 0.01 62 1007.4
20260507144550 55 286 3.0 7.0 0.00 0.21 0.01 64 1007.4
20260507143039 56 311 1.0 6.0 0.00 0.21 0.01 64 1007.4
20260507141537 55 281 3.0 8.0 0.00 0.21 0.01 64 1007.4
20260507140037 55 319 2.0 6.0 0.00 0.21 0.01 62 1007.5
20260507134534 55 329 1.0 5.0 0.00 0.21 0.01 69 1007.3
20260507133033 54 306 1.0 4.0 0.00 0.21 0.01 69 1007.5
20260507131533 53 311 2.0 7.0 0.00 0.21 0.01 70 1007.7
20260507130039 53 277 1.0 4.0 0.00 0.21 0.01 74 1007.8
20260507124530 52 316 1.0 6.0 0.00 0.21 0.01 79 1007.9
20260507123038 51 281 0.0 7.0 0.00 0.21 0.01 80 1007.9
20260507121527 50 310 5.0 10.0 0.00 0.21 0.01 80 1008.0
20260507120025 49 300 1.0 4.0 0.00 0.21 0.01 83 1008.0
20260507114524 48 295 0.0 5.0 0.00 0.21 0.01 86 1007.9
20260507113027 48 288 0.0 4.0 0.00 0.21 0.01 88 1007.9
20260507111521 47 291 0.0 2.0 0.00 0.21 0.01 89 1007.6
20260507110023 47 291 0.0 2.0 0.00 0.21 0.01 88 1007.7
20260507104517 47 290 1.0 5.0 0.00 0.21 0.01 89 1007.5
20260507103017 47 280 1.0 4.0 0.00 0.21 0.01 89 1007.2
20260507101517 47 293 0.0 2.0 0.00 0.21 0.01 89 1007.0
20260507100014 47 323 1.0 5.0 0.00 0.21 0.01 90 1007.0
20260507094513 47 306 1.0 5.0 0.00 0.21 0.01 89 1007.0
20260507093012 47 289 1.0 6.0 0.00 0.21 0.01 90 1007.0
20260507091511 47 301 1.0 7.0 0.00 0.21 0.01 90 1007.2
20260507090012 47 311 1.0 8.0 0.00 0.21 0.01 92 1007.4
20260507084512 47 291 0.0 3.0 0.00 0.21 0.01 93 1007.0
20260507083006 47 302 0.0 5.0 0.00 0.21 0.01 93 1006.9
20260507081503 48 307 1.0 4.0 0.00 0.21 0.01 92 1006.8
20260507080002 48 298 0.0 5.0 0.00 0.21 0.01 91 1006.6
20260507074600 49 310 2.0 6.0 0.00 0.21 0.01 89 1006.9
20260507073056 50 284 2.0 7.0 0.00 0.21 0.01 89 1007.0
20260507071553 50 301 3.0 9.0 0.00 0.21 0.01 91 1006.3
20260507070054 50 288 1.0 4.0 0.00 0.21 0.01 93 1006.3
20260507064606 50 296 0.0 3.0 0.00 0.21 0.01 92 1005.8
20260507063053 50 293 2.0 4.0 0.00 0.21 0.01 92 1006.2
20260507061548 50 298 1.0 4.0 0.00 0.21 0.01 92 1006.1
20260507060049 50 294 2.0 6.0 0.01 0.21 0.01 91 1006.2
20260507054546 50 319 3.0 8.0 0.01 0.21 0.01 91 1006.5
20260507053044 51 309 3.0 7.0 0.01 0.21 0.01 93 1006.7
20260507051541 51 300 1.0 10.0 0.01 0.21 0.01 94 1006.6
20260507050040 52 336 2.0 8.0 0.00 0.20 0.00 94 1006.7
20260507044534 52 313 1.0 7.0 0.03 0.20 0.00 95 1006.3
20260507043029 54 287 2.0 9.0 0.03 0.20 0.00 96 1006.2
20260507041540 54 291 0.0 2.0 0.03 0.20 0.00 96 1006.2
20260507040025 55 291 2.0 7.0 0.03 0.20 0.00 95 1006.4
20260507034519 56 293 1.0 8.0 0.00 0.17 0.17 96 1006.2
20260507033017 57 317 0.0 7.0 0.01 0.17 0.17 96 1005.9
20260507031514 58 317 5.0 11.0 0.01 0.17 0.17 97 1005.5
20260507030013 58 288 0.0 2.0 0.01 0.17 0.17 98 1005.2
20260507024512 58 281 0.0 2.0 0.00 0.16 0.16 98 1005.4
20260507023011 58 281 0.0 2.0 0.00 0.16 0.16 98 1005.4
20260507021512 58 272 0.0 1.0 0.00 0.16 0.16 98 1005.1
20260507020010 58 214 0.0 0.0 0.00 0.16 0.16 98 1005.0
20260507014517 58 347 0.0 2.0 0.00 0.16 0.16 98 1005.1
20260507013029 58 256 0.0 1.0 0.00 0.16 0.16 98 1005.2
20260507011513 58 281 0.0 2.0 0.00 0.16 0.16 97 1005.2
20260507010007 58 280 0.0 1.0 0.00 0.16 0.16 97 1005.2
20260507004507 58 288 0.0 3.0 0.00 0.16 0.16 97 1005.1
20260507003006 58 305 0.0 2.0 0.00 0.16 0.16 97 1005.0
20260507001505 58 23 0.0 1.0 0.00 0.16 0.16 97 1004.9
20260507000019 58 335 0.0 3.0 0.02 0.16 0.16 97 1004.9
20260506234504 58 284 0.0 1.0 0.03 0.16 0.16 97 1004.9
20260506233004 58 294 0.0 1.0 0.04 0.16 0.16 97 1004.8
20260506231502 58 95 0.0 3.0 0.05 0.16 0.16 97 1004.9
20260506230001 58 319 0.0 1.0 0.06 0.14 0.14 97 1004.9
20260506224604 58 291 0.0 2.0 0.06 0.13 0.13 97 1005.0
20260506223126 58 350 0.0 0.0 0.06 0.12 0.12 96 1005.0
20260506221603 58 288 0.0 0.0 0.05 0.11 0.11 96 1005.1
20260506220057 59 338 0.0 2.0 0.02 0.08 0.08 96 1005.1
20260506214608 59 305 0.0 4.0 0.01 0.07 0.07 95 1005.3
20260506213054 59 188 0.0 2.0 0.01 0.06 0.06 95 1005.2
20260506211553 59 267 0.0 1.0 0.02 0.06 0.06 95 1005.5
20260506210051 59 336 0.0 4.0 0.03 0.06 0.06 95 1005.7
20260506204550 59 271 0.0 6.0 0.03 0.06 0.06 94 1005.8
20260506203050 60 160 0.0 3.0 0.02 0.05 0.05 94 1005.9
20260506201548 61 346 0.0 3.0 0.02 0.04 0.04 93 1005.8
20260506200120 61 331 0.0 1.0 0.02 0.03 0.03 93 1005.8
20260506194547 62 270 0.0 1.0 0.03 0.03 0.03 92 1005.8
20260506193046 62 322 0.0 1.0 0.03 0.03 0.03 91 1005.9
20260506191547 63 320 0.0 2.0 0.02 0.02 0.02 88 1005.8
20260506190045 64 306 0.0 3.0 0.01 0.01 0.01 84 1005.9
20260506184543 65 245 0.0 7.0 0.00 0.00 0.00 80 1006.0
20260506183042 67 10 0.0 4.0 0.00 0.00 0.00 74 1006.1
20260506181542 68 248 2.0 7.0 0.00 0.00 0.00 69 1006.2
20260506180047 69 300 0.0 7.0 0.00 0.00 0.00 67 1006.2
20260506174539 71 329 2.0 6.0 0.00 0.00 0.00 60 1006.3
20260506173038 71 348 1.0 6.0 0.00 0.00 0.00 59 1006.0
20260506171548 72 307 1.0 6.0 0.00 0.00 0.00 59 1006.2
20260506170036 71 265 1.0 4.0 0.00 0.00 0.00 62 1006.3
20260506164528 70 264 0.0 3.0 0.00 0.00 0.00 63 1006.6